Regional Weather Roundup
Issued by NWS Green Bay, WI

Home | Current Version | Previous Version | Graphics & Text | Print | Product List | Glossary Off
Versions: 1 2 3 4 5 6 7 8 9 10 11 12 13 14 15 16 17 18 19 20 21 22 23 24 25 26 27 28 29 30 31 32 33 34 35 36 37 38 39 40 41 42 43 44 45 46 47 48 49 50

000
ASUS43 KGRB 230700
RWRGRB

NORTH-CENTRAL AND NORTHEAST WISCONSIN REGIONAL WEATHER ROUNDUP
NATIONAL WEATHER SERVICE GREEN BAY WI
200 AM CDT TUE MAY 23 2017

WIZ005-009-010>012-018-019-230800-
NORTH CENTRAL WISCONSIN

CITY           SKY/WX    TMP DP  RH WIND       PRES   REMARKS
IRONWOOD       CLOUDY    44  43  96 CALM      29.83S
MANITOWISH WTR NOT AVBL
ARBOR VITAE    NOT AVBL
EAGLE RIVER    NOT AVBL
LAND O LAKES   NOT AVBL
RHINELANDER    MOCLDY    41  39  93 CALM      29.82F
PHILLIPS       NOT AVBL
ANTIGO         NOT AVBL
TOMAHAWK       NOT AVBL
MERRILL        NOT AVBL
$$

WIZ013-073-230800-
NORTHEAST WISCONSIN

CITY           SKY/WX    TMP DP  RH WIND       PRES   REMARKS
IRON MOUNTAIN  FOG       36  34  92 CALM      29.82F VSB 1
MARINETTE      CLEAR     43  42  97 CALM      29.85R
$$

WIZ017-030-035>037-045-230800-
CENTRAL WISCONSIN

CITY           SKY/WX    TMP DP  RH WIND       PRES   REMARKS
MEDFORD        NOT AVBL
WAUSAU         CLOUDY    49  42  77 E5        29.80S
MOSINEE        NOT AVBL
MARSHFIELD     LGT RAIN  50  44  80 SE6       29.81R
WISC RAPIDS    RAIN      51  50  96 SE5       29.83R FOG
STEVENS POINT  NOT AVBL
WAUPACA        NOT AVBL
SHAWANO        NOT AVBL
CLINTONVILLE   NOT AVBL
WAUTOMA        LGT RAIN  55  52  88 SW6       29.80F
$$

WIZ038-039-048-051-230800-
FOX VALLEY

CITY           SKY/WX    TMP DP  RH WIND       PRES   REMARKS
NWS GREEN BAY  CLOUDY    50  46  86 E5        29.82F
APPLETON       NOT AVBL
OSHKOSH        MOCLDY    56  52  86 CALM      29.79F
FOND DU LAC    MOCLDY    57  52  83 S7        29.79F
$$

WIZ022-050-052-230800-
EAST CENTRAL WISCONSIN

CITY           SKY/WX    TMP DP  RH WIND       PRES   REMARKS
EPHRAIM        NOT AVBL
WASHINGTON ISL NOT AVBL
STURGEON BAY   CLEAR     45  44  97 E3        29.84F
MANITOWOC      NOT AVBL
SHEBOYGAN      MOCLDY    53  52  96 NE3       29.81F
$$

LMZ563-521-522-541>543-230800-
LAKESHORE

STATION/POSITION TIME  TEMP    WIND        PRES    VSBY  WAVE
                       AIR SEA DIR/SP/G                  HT/PER
                 (UTC) (F)     (DEG/KT/KT) (MB)    (MI)  (FT/S)
SHEBOYGAN LKSHOR 0600   55     260/  3/  3 1009.5F
KEWAUNEE LKSHORE 0630   50      20/  3/  5 1010.0F
NORTHPORT PIER   0640   46     200/  3/  5 1010.8S
N MID LAKE BUOY  0550   41 39  190/  4/  4 1011.9F         3/ 5
CHAMBERS ISLAND  0640   42      CALM  /  1 1010.2F
MENOMINEE LKSHOR 0624          120/  1/  2 1009.6
$$



USA.gov is the U.S. government's official web portal to all federal, state and local government web resources and services.